Weather History for KSLH - February, 2013

Change the Weather History Date:

Sunday, February 17, 2013

  Actual Average Record
Temperature  
Mean Temperature 8 °F -  
Max Temperature 17 °F - - ()
Min Temperature -2 °F - - ()
Degree Days  
Heating Degree Days 58    
Moisture  
Dew Point 4 °F    
Average Humidity 77    
Maximum Humidity 89    
Minimum Humidity 53    
Precipitation  
Precipitation 0.00 in - - ()
Sea Level Pressure  
Sea Level Pressure 30.12 in    
Wind  
Wind Speed 3 mph (ESE)    
Max Wind Speed 6 mph    
Max Gust Speed -    
Visibility 9 miles    
Events Snow    
T = Trace of Precipitation, MM = Missing Value Source: NWS Daily Summary

Daily Weather History Graph

Daily Weather History Graph

Search for Another Location

Airport or City:

Trip Planner

Search our weather history database for the weather conditions in past years. The results will help you decide how hot, cold, wet, or windy it might be!

Date:

Astronomy

Feb. 17, 2013 Rise Set
Actual Time 7:36 AM EST 6:08 PM EST
Civil Twilight 7:06 AM EST 6:38 PM EST
Nautical Twilight 6:31 AM EST 7:13 PM EST
Astronomical Twilight 5:57 AM EST 7:47 PM EST
Moon 11:04 AM EST (2/17) 1:26 AM EST (2/17)
Length of Visible Light 11h 32m
Length of Day
10h 31m
Waxing Crescent, 49% of the Moon is Illuminated
Feb 17
Waxing Crescent
Feb 17
First Quarter
Feb 25
Full
Mar 4
Last Quarter
Mar 11
New

Hourly Weather History & Observations

Time (EST) Temp. Windchill Dew Point Humidity Pressure Visibility Wind Dir Wind Speed Gust Speed Precip Events Conditions
12:15 AM -2.9 °F -11.2 °F -6.2 °F 86% 30.11 in 10.0 mi West 3.5 mph - N/A   Clear
12:35 AM -1.8 °F -12.0 °F -5.1 °F 86% 30.11 in 10.0 mi West 4.6 mph - N/A   Clear
12:55 AM -0.6 °F -8.5 °F -3.8 °F 86% 30.11 in 10.0 mi West 3.5 mph - N/A   Clear
1:15 AM -1.7 °F - -4.7 °F 87% 30.11 in 10.0 mi Calm Calm - N/A   Mostly Cloudy
1:34 AM 1.2 °F - -2.0 °F 86% 30.11 in 10.0 mi Calm Calm - N/A   Overcast
1:55 AM 1.6 °F -9.7 °F -2.2 °F 84% 30.11 in 10.0 mi West 5.8 mph - N/A   Overcast
2:15 AM 3.9 °F -5.3 °F 0.1 °F 84% 30.11 in 5.0 mi West 4.6 mph - N/A Snow Light Snow
2:34 AM 3.4 °F -7.5 °F -0.2 °F 85% 30.11 in 10.0 mi West 5.8 mph - N/A   Scattered Clouds
2:55 AM 3.6 °F -3.8 °F -0.0 °F 85% 30.11 in 10.0 mi WSW 3.5 mph - N/A   Scattered Clouds
3:15 AM 2.1 °F -5.4 °F -0.9 °F 87% 30.11 in 10.0 mi WSW 3.5 mph - N/A   Scattered Clouds
3:35 AM -0.2 °F -10.1 °F -3.6 °F 85% 30.11 in 10.0 mi SW 4.6 mph - N/A   Clear
3:55 AM -2.6 °F -14.6 °F -5.6 °F 87% 30.11 in 10.0 mi West 5.8 mph - N/A   Clear
4:14 AM 1.4 °F -8.3 °F -1.5 °F 88% 30.11 in 10.0 mi West 4.6 mph - N/A   Scattered Clouds
4:35 AM 2.7 °F -8.4 °F -0.4 °F 87% 30.12 in 10.0 mi West 5.8 mph - N/A   Mostly Cloudy
4:55 AM 4.1 °F -5.1 °F 0.5 °F 85% 30.12 in 10.0 mi West 4.6 mph - N/A   Overcast
5:14 AM 5.0 °F -4.1 °F 1.6 °F 86% 30.12 in 10.0 mi West 4.6 mph - N/A   Overcast
5:35 AM 5.0 °F - 1.2 °F 84% 30.12 in 10.0 mi Calm Calm - N/A   Overcast
5:55 AM 4.8 °F - 1.4 °F 86% 30.13 in 10.0 mi Calm Calm - N/A   Overcast
6:15 AM 5.5 °F - 2.1 °F 86% 30.13 in 10.0 mi Calm Calm - N/A   Overcast
6:35 AM 6.1 °F - 2.8 °F 87% 30.13 in 7.0 mi Calm Calm - N/A Snow Light Snow
6:55 AM 6.3 °F - 3.0 °F 87% 30.13 in 5.0 mi Calm Calm - N/A Snow Light Snow
7:15 AM 3.4 °F - -0.2 °F 85% 30.14 in 10.0 mi Calm Calm - N/A   Overcast
7:35 AM 5.5 °F - 2.8 °F 89% 30.14 in 10.0 mi Calm Calm - N/A   Overcast
7:55 AM 5.9 °F - 3.0 °F 88% 30.14 in 10.0 mi Calm Calm - N/A   Overcast
8:15 AM 6.6 °F - 3.7 °F 88% 30.15 in 7.0 mi Calm Calm - N/A   Overcast
8:35 AM 8.8 °F 2.2 °F 5.9 °F 88% 30.15 in 10.0 mi NW 3.5 mph - N/A   Overcast
8:55 AM 9.5 °F - 6.1 °F 86% 30.15 in 5.0 mi Calm Calm - N/A Snow Light Snow
9:15 AM 10.2 °F - 7.2 °F 87% 30.15 in 2.5 mi Calm Calm - N/A Snow Light Snow
9:34 AM 11.8 °F 2.5 °F 7.7 °F 83% 30.15 in 5.0 mi ENE 5.8 mph - N/A Snow Light Snow
9:55 AM 12.2 °F 2.9 °F 7.5 °F 82% 30.15 in 4.0 mi ENE 5.8 mph - N/A Snow Light Snow
10:15 AM 12.2 °F 2.9 °F 7.2 °F 80% 30.16 in 4.0 mi East 5.8 mph - N/A Snow Light Snow
10:35 AM 12.2 °F 2.9 °F 6.6 °F 78% 30.16 in 7.0 mi ENE 5.8 mph - N/A Snow Light Snow
10:55 AM 13.1 °F 4.0 °F 7.0 °F 77% 30.16 in 5.0 mi ENE 5.8 mph - N/A Snow Light Snow
11:14 AM 12.6 °F 4.8 °F 6.6 °F 77% 30.17 in 7.0 mi NE 4.6 mph - N/A Snow Light Snow
11:35 AM 13.1 °F 7.1 °F 6.4 °F 75% 30.17 in 7.0 mi ENE 3.5 mph - N/A Snow Light Snow
12:14 PM 14.0 °F 8.2 °F 6.6 °F 72% 30.16 in 7.0 mi NE 3.5 mph - N/A Snow Light Snow
12:35 PM 14.2 °F - 6.4 °F 71% 30.16 in 10.0 mi Calm Calm - N/A   Mostly Cloudy
12:55 PM 15.3 °F 9.6 °F 7.3 °F 71% 30.15 in 10.0 mi ENE 3.5 mph - N/A Snow Light Snow
1:14 PM 14.0 °F 6.5 °F 6.6 °F 72% 30.15 in 10.0 mi East 4.6 mph - N/A   Mostly Cloudy
1:35 PM 14.9 °F 7.5 °F 7.3 °F 72% 30.14 in 10.0 mi ENE 4.6 mph - N/A   Scattered Clouds
1:55 PM 13.8 °F 6.2 °F 6.8 °F 74% 30.13 in 10.0 mi ENE 4.6 mph - N/A   Scattered Clouds
2:15 PM 13.5 °F 7.5 °F 6.8 °F 75% 30.13 in 10.0 mi East 3.5 mph - N/A   Scattered Clouds
2:35 PM 15.6 °F 10.0 °F 7.5 °F 70% 30.13 in 10.0 mi ESE 3.5 mph - N/A   Scattered Clouds
2:55 PM 16.5 °F 9.4 °F 8.2 °F 70% 30.13 in 10.0 mi ENE 4.6 mph - N/A   Mostly Cloudy
3:15 PM 16.5 °F 11.0 °F 7.7 °F 68% 30.13 in 10.0 mi ENE 3.5 mph - N/A   Overcast
3:35 PM 16.3 °F - 7.3 °F 68% 30.13 in 10.0 mi Calm Calm - N/A   Overcast
3:54 PM 16.9 °F - 6.3 °F 63% 30.12 in 10.0 mi Calm Calm - N/A   Mostly Cloudy
4:15 PM 16.9 °F 11.5 °F 2.5 °F 53% 30.12 in 10.0 mi NNE 3.5 mph - N/A   Mostly Cloudy
4:35 PM 16.7 °F 11.2 °F 3.7 °F 57% 30.12 in 10.0 mi North 3.5 mph - N/A   Overcast
4:54 PM 16.7 °F - 4.3 °F 58% 30.12 in 10.0 mi Calm Calm - N/A   Overcast
5:15 PM 17.1 °F - 3.6 °F 56% 30.12 in 10.0 mi Calm Calm - N/A   Overcast
5:35 PM 16.7 °F 11.2 °F 3.0 °F 55% 30.12 in 10.0 mi North 3.5 mph - N/A   Overcast
5:55 PM 16.7 °F - 2.3 °F 53% 30.12 in 10.0 mi Calm Calm - N/A   Overcast
6:15 PM 16.5 °F - 3.2 °F 56% 30.12 in 10.0 mi Calm Calm - N/A   Overcast
6:35 PM 15.6 °F - 6.4 °F 67% 30.11 in 10.0 mi Calm Calm - N/A   Overcast
6:55 PM 16.2 °F - 6.4 °F 66% 30.11 in 10.0 mi Calm Calm - N/A   Overcast
7:15 PM 15.6 °F 10.0 °F 7.7 °F 71% 30.11 in 10.0 mi SE 3.5 mph - N/A   Overcast
7:35 PM 15.3 °F - 7.9 °F 73% 30.10 in 10.0 mi Calm Calm - N/A   Overcast
7:55 PM 15.4 °F - 7.2 °F 70% 30.11 in 10.0 mi Calm Calm - N/A   Overcast
8:15 PM 15.4 °F 9.8 °F 6.8 °F 69% 30.11 in 10.0 mi SSE 3.5 mph - N/A   Overcast
8:35 PM 14.4 °F 8.6 °F 7.7 °F 75% 30.11 in 10.0 mi South 3.5 mph - N/A   Mostly Cloudy
8:55 PM 12.9 °F 6.9 °F 6.4 °F 75% 30.11 in 10.0 mi South 3.5 mph - N/A   Mostly Cloudy
9:15 PM 14.2 °F 8.4 °F 8.1 °F 77% 30.11 in 10.0 mi SSE 3.5 mph - N/A   Mostly Cloudy
9:34 PM 13.8 °F 6.2 °F 8.2 °F 78% 30.10 in 10.0 mi SSE 4.6 mph - N/A   Mostly Cloudy
9:55 PM 13.6 °F 6.0 °F 8.2 °F 79% 30.10 in 10.0 mi SSE 4.6 mph - N/A   Mostly Cloudy
10:15 PM 13.1 °F 7.1 °F 7.7 °F 79% 30.10 in 10.0 mi SE 3.5 mph - N/A   Scattered Clouds
10:35 PM 12.2 °F 4.3 °F 7.5 °F 82% 30.10 in 10.0 mi SSE 4.6 mph - N/A   Clear
10:55 PM 12.0 °F 5.9 °F 7.5 °F 82% 30.10 in 10.0 mi SE 3.5 mph - N/A   Clear
11:15 PM 11.1 °F 3.1 °F 7.2 °F 84% 30.10 in 10.0 mi SE 4.6 mph - N/A   Scattered Clouds
11:35 PM 10.2 °F 3.8 °F 6.4 °F 85% 30.09 in 10.0 mi SE 3.5 mph - N/A   Clear
11:55 PM 10.2 °F 3.8 °F 6.4 °F 85% 30.09 in 10.0 mi SSE 3.5 mph - N/A   Clear